Tracking 26933 objects as of 5-Feb-2023
HD Live streaming from Space Station
objects crossing your sky now

INS-2TD

Track INS-2TD now!
10-day predictions


NORAD ID: 51658
Int'l Code: 2022-013C
Perigee: 510.7 km
Apogee: 527.6 km
Inclination: 97.6 °
Period: 94.9 minutes
Semi major axis: 6890 km
RCS: Unknown
Launch date: February 14, 2022
Source: India (IND)
Launch site: SRIHARIKOTA (SRI)
Your satellite tracking list
Your tracking list is empty




NASA's NSSDC Master Catalog

Two Line Element Set (TLE):
1 51658U 22013C   23036.54824440  .00009551  00000-0  47254-3 0  9993
2 51658  97.5532  48.5727 0012282 105.2102 255.0491 15.17960077 53981
Source of the keplerian elements: AFSPC